Flag for Germany Weather past 2 weeks in Kulmbach, Bavaria, Germany

Now
68 °F

Scattered clouds.


Feels Like: 68 °F
Forecast: 52 / 83 °F
Wind: 2 mph from North

Location: Hof Airport

Current Time: Jul 25, 2014 at 11:17:00 AM

Latest Report: Jul 25, 2014 at 10:50 AM


Visibility: N/A

Pressure: 29.98 "Hg

Humidity: 56%

Dew point: 52 °F

Location of KulmbachLocation

Historic Weather in Kulmbach — Graph

°F

Kulmbach temperature yesterday

Maximum temperature yesterday: 72 °F (at 12:20 PM)
Minimum temperature yesterday: 54 °F (at 2:50 AM)
Average temperature yesterday: 62 °F

Past Weeks' High & Low Weather Summary

 TemperatureHumidityPressure
High88 °F (Jul 20, 2:50 PM)94% (Jul 10, 10:20 AM)30.24 "Hg (Jul 10, 10:20 AM)
Low48 °F (Jul 11, 4:20 AM)24% (Jul 19, 5:20 PM)29.77 "Hg (Jul 10, 10:20 AM)
Average65 °F68%30.01 "Hg
* Reported Jul 10 10:20 AM — Jul 25 10:20 AM, Kulmbach, Weather by CustomWeather, © 2014

Note: Actual official high and low records may vary slightly from our data, if they occured in-between our weather recording intervals... More about our weather records

Advertising

Kulmbach weather history for previous 24 hours

 ConditionsComfort  
Time TempWeatherWind HumidityBarometerVisibility
10:20 AM
Jul 25
64 °FSunny.1 mph68%29.98 "Hg10 mi
9:50 AM63 °FPartly sunny.No wind73%29.98 "HgN/A
9:20 AM61 °FPartly sunny.2 mph77%29.98 "HgN/A
8:50 AM59 °FPartly sunny.No wind82%29.98 "HgN/A
8:20 AM59 °FPartly sunny.5 mph82%29.98 "HgN/A
7:50 AM59 °FBroken clouds.2 mph88%29.98 "HgN/A
7:20 AM57 °FPartly sunny.1 mph94%29.98 "Hg5 mi
6:50 AM57 °FLow clouds.No wind88%29.98 "Hg3 mi
6:20 AM55 °FLow clouds.1 mph88%29.98 "Hg2 mi
5:50 AM54 °FLow clouds.2 mph94%29.95 "Hg3 mi
5:20 AM54 °FPassing clouds.1 mph94%29.95 "Hg2 mi
4:50 AM54 °FPassing clouds.1 mph88%29.98 "Hg2 mi
4:20 AM55 °FLow clouds.3 mph94%29.98 "Hg4 mi
3:50 AM55 °FLow clouds.No wind94%29.98 "Hg4 mi
3:20 AM54 °FPassing clouds.No wind94%29.98 "Hg4 mi
2:50 AM55 °FPartly cloudy.5 mph94%29.98 "Hg6 mi
2:20 AM54 °FCool.3 mph88%29.98 "Hg4 mi
1:50 AM55 °FPassing clouds.2 mph88%29.98 "HgN/A
1:20 AM57 °FLow clouds.2 mph88%29.98 "HgN/A
12:50 AM57 °FOvercast.5 mph88%29.98 "HgN/A
12:20 AM57 °FOvercast.5 mph88%29.98 "HgN/A
11:50 PM
Jul 24
55 °FPassing clouds.5 mph88%29.98 "HgN/A
11:20 PM55 °FPassing clouds.5 mph88%29.98 "HgN/A
10:50 PM57 °FPassing clouds.5 mph82%29.98 "HgN/A
10:20 PM57 °FPassing clouds.6 mph82%29.98 "HgN/A
9:50 PM57 °FCool.8 mph82%29.98 "HgN/A
9:20 PM59 °FPassing clouds.5 mph77%29.98 "HgN/A
8:50 PM61 °FCool.8 mph72%29.98 "HgN/A
8:20 PM61 °FCool.10 mph72%29.98 "HgN/A
7:50 PM63 °FSunny.9 mph68%29.98 "Hg10 mi
7:20 PM63 °FScattered clouds.13 mph73%29.98 "HgN/A
6:50 PM66 °FScattered clouds.15 mph60%29.98 "HgN/A
6:20 PM66 °FScattered clouds.13 mph60%29.98 "HgN/A
5:50 PM68 °FScattered clouds.15 mph53%29.98 "HgN/A
5:20 PM66 °FPassing clouds.16 mph56%29.98 "HgN/A
4:50 PM68 °FPassing clouds.15 mph56%29.98 "HgN/A
4:20 PM70 °FPassing clouds.15 mph53%29.98 "HgN/A
3:50 PM68 °FScattered clouds.14 mph56%30.01 "HgN/A
3:20 PM66 °FBroken clouds.18 mph60%30.01 "HgN/A
2:50 PM68 °FBroken clouds.16 mph56%30.01 "HgN/A
2:20 PM72 °FScattered clouds.14 mph50%29.98 "HgN/A
1:50 PM70 °FScattered clouds.14 mph50%29.98 "HgN/A
1:20 PM72 °FPassing clouds.14 mph47%29.98 "HgN/A
12:50 PM72 °FPassing clouds.14 mph50%29.98 "HgN/A
12:20 PM72 °FScattered clouds.14 mph50%29.98 "HgN/A
11:50 AM70 °FPassing clouds.13 mph50%29.98 "HgN/A
11:20 AM70 °FPassing clouds.13 mph50%30.01 "HgN/A
Weather by CustomWeather, © 2014

See weather overviewHow to use our weather pages